Voltar ao catálogo

ORS 5 SENSORSAT

AtivoMilitarVLEO
NORAD 42921·PAYLOAD·🇺🇸 United States

Lançado Aug 26, 2017 de Cape Canaveral Space Force Station

Loading…

Próximas Passagens (próximas 24 horas)

TLE

AtualizadoSource: Space-Track

Época: Sep 13, 2026, 16:25 UTC

1 42921U 17050A   26256.68432741  .00002297  00000-0  11076-3 0  9995
2 42921   0.0476 206.2784 0010390 302.7851 210.9977 15.01148444494346

Acompanhe ORS 5 SENSORSAT em tempo real com AllMySat

Download on the App Store